DW8463 Weather Reports


time (UTC)temp
F
wind
direction
speed
knots
gust
knots
rain 1hr
in
rain 24hr
in
rain mn
in
humidity
%
barometer
mb
20260901200803 83 191 0.0 0.0 0.00 0.00 0.00 59 1011.1
20260901200303 84 191 0.0 0.0 0.00 0.00 0.00 59 1011.4
20260901195804 84 191 0.0 0.0 0.00 0.00 0.00 59 1011.5
20260901194303 85 191 1.7 4.3 0.00 0.00 0.00 59 1011.5
20260901193803 85 238 0.0 1.7 0.00 0.00 0.00 59 1011.4
20260901193303 85 238 0.0 0.0 0.00 0.00 0.00 59 1011.4
20260901192803 85 238 0.0 0.0 0.00 0.00 0.00 59 1011.4
20260901192306 85 238 0.0 0.0 0.00 0.00 0.00 59 1011.3
20260901191803 85 238 0.0 0.9 0.00 0.00 0.00 59 1011.3
20260901191303 85 238 0.0 2.6 0.00 0.00 0.00 59 1011.3
20260901190804 85 238 0.9 4.3 0.00 0.00 0.00 59 1011.3
20260901190303 85 237 0.9 2.6 0.00 0.00 0.00 59 1011.5
20260901185306 86 228 0.9 2.6 0.00 0.00 0.00 58 1011.5
20260901184803 86 149 0.0 2.6 0.00 0.00 0.00 58 1011.4
20260901184304 86 142 0.9 2.6 0.00 0.00 0.00 58 1011.4
20260901183303 86 262 1.7 2.6 0.00 0.00 0.00 58 1011.7
20260901182803 87 243 1.7 4.3 0.00 0.00 0.00 58 1011.8
20260901182305 89 328 1.7 4.3 0.00 0.00 0.00 58 1011.9
20260901181303 88 273 1.7 5.2 0.00 0.00 0.00 58 1012.1
20260901180804 88 294 1.7 4.3 0.00 0.00 0.00 58 1012.1
20260901180303 88 280 1.7 4.3 0.00 0.00 0.00 58 1012.1
20260901175305 88 222 1.7 2.6 0.00 0.00 0.00 62 1012.3
20260901174804 88 235 0.9 5.2 0.00 0.00 0.00 62 1012.3
20260901174304 88 259 0.9 2.6 0.00 0.00 0.00 62 1012.2
20260901173803 87 79 1.7 2.6 0.00 0.00 0.00 62 1012.2
20260901173304 86 148 0.9 2.6 0.00 0.00 0.00 62 1012.2
20260901172305 86 201 0.9 2.6 0.00 0.00 0.00 62 1012.3
20260901171303 86 38 1.7 4.3 0.00 0.00 0.00 62 1012.5
20260901170803 85 277 2.6 4.3 0.00 0.00 0.00 62 1012.6
20260901170303 85 285 1.7 7.0 0.00 0.00 0.00 62 1012.6
20260901165306 84 250 0.9 5.2 0.00 0.00 0.00 63 1012.6
20260901164804 84 263 1.7 4.3 0.00 0.00 0.00 63 1012.6
20260901164304 84 331 2.6 6.1 0.00 0.00 0.00 63 1012.7
20260901163803 84 302 0.9 2.6 0.00 0.00 0.00 63 1012.8
20260901163304 84 314 0.9 4.3 0.00 0.00 0.00 63 1012.9
20260901162803 82 298 0.9 7.0 0.00 0.00 0.00 63 1012.9
20260901162306 82 345 2.6 5.2 0.00 0.00 0.00 63 1012.8
20260901161803 82 344 0.9 6.1 0.00 0.00 0.00 63 1012.8
20260901161303 82 330 2.6 5.2 0.00 0.00 0.00 63 1012.8
20260901160803 82 22 2.6 7.0 0.00 0.00 0.00 63 1012.8
20260901155804 81 28 1.7 2.6 0.00 0.00 0.00 73 1012.8
20260901155306 81 44 1.7 5.2 0.00 0.00 0.00 73 1012.7
20260901154303 80 335 0.9 2.6 0.00 0.00 0.00 73 1012.7
20260901153803 80 308 0.9 2.6 0.00 0.00 0.00 73 1012.6
20260901153303 80 19 1.7 4.3 0.00 0.00 0.00 73 1012.6
20260901152803 79 342 1.7 5.2 0.00 0.00 0.00 73 1012.6
20260901152305 79 359 0.9 4.3 0.00 0.00 0.00 73 1012.5
20260901151803 79 330 4.3 7.0 0.00 0.00 0.00 73 1012.6
20260901151304 78 13 1.7 2.6 0.00 0.00 0.00 73 1012.6
20260901150804 78 314 3.5 4.3 0.00 0.00 0.00 73 1012.6
20260901150303 78 281 0.9 2.6 0.00 0.00 0.00 76 1012.7
20260901145803 76 294 0.9 2.6 0.00 0.00 0.00 92 1012.8
20260901144303 75 221 0.0 0.0 0.00 0.00 0.00 92 1012.8
20260901143803 74 218 0.9 2.6 0.00 0.00 0.00 92 1012.9
20260901143303 73 316 0.0 0.0 0.00 0.00 0.00 92 1012.9
20260901142803 72 316 0.0 0.9 0.00 0.00 0.00 92 1012.9
20260901142306 72 316 0.9 2.6 0.00 0.00 0.00 92 1012.9
20260901141803 71 316 0.9 1.7 0.00 0.00 0.00 92 1013.0
20260901141303 70 316 0.0 1.7 0.00 0.00 0.00 92 1012.9
20260901140803 69 0 0.0 2.6 0.00 0.00 0.00 92 1012.9
20260901140304 68 340 0.9 2.6 0.00 0.00 0.00 92 1012.9
20260901135803 67 340 0.0 0.9 0.00 0.00 0.00 100 1013.0
20260901135305 67 346 1.7 2.6 0.00 0.00 0.00 100 1013.1
20260901134803 66 286 0.9 2.6 0.00 0.00 0.00 100 1013.1
20260901133803 65 286 0.0 0.0 0.00 0.00 0.00 100 1012.8
20260901133304 65 286 0.0 0.0 0.00 0.00 0.00 100 1012.8
20260901132307 64 286 0.0 0.0 0.00 0.00 0.00 100 1012.8
20260901131804 64 286 0.0 0.9 0.00 0.00 0.00 100 1012.8
20260901131303 63 286 0.0 0.0 0.00 0.00 0.00 100 1012.8
20260901130804 63 0 0.0 0.0 0.00 0.00 0.00 100 1012.7
20260901125803 62 0 0.0 0.9 0.00 0.00 0.00 100 1012.7
20260901125308 62 0 0.0 0.9 0.00 0.00 0.00 100 1012.7
20260901124803 62 0 0.0 0.0 0.00 0.00 0.00 100 1012.6
20260901124304 62 0 0.0 0.0 0.00 0.00 0.00 100 1012.6
20260901123803 62 0 0.0 0.0 0.00 0.00 0.00 100 1012.6
20260901123304 61 0 0.0 0.0 0.00 0.00 0.00 100 1012.6
20260901122803 61 0 0.0 0.0 0.00 0.00 0.00 100 1012.6
20260901121803 61 0 0.0 0.0 0.00 0.00 0.00 100 1012.5
20260901121303 61 0 0.0 0.0 0.00 0.00 0.00 100 1012.4
20260901120804 60 0 0.0 0.0 0.00 0.00 0.00 100 1012.4
20260901120303 60 0 0.0 0.0 0.00 0.00 0.00 100 1012.3
20260901115803 60 0 0.0 0.0 0.00 0.00 0.00 100 1012.3
20260901115306 60 0 0.0 0.0 0.00 0.00 0.00 100 1012.3
20260901114303 61 0 0.0 0.0 0.00 0.00 0.00 100 1012.2
20260901113803 61 0 0.0 0.0 0.00 0.00 0.00 100 1012.1
20260901113304 60 0 0.0 0.0 0.00 0.00 0.00 100 1012.1
20260901112306 60 0 0.0 0.0 0.00 0.00 0.00 100 1011.9
20260901111303 60 0 0.0 0.0 0.00 0.00 0.00 100 1011.9
20260901110803 60 0 0.0 0.0 0.00 0.00 0.00 100 1011.8
20260901110304 60 0 0.0 0.0 0.00 0.00 0.00 100 1011.8
20260901104804 60 0 0.0 0.0 0.00 0.00 0.00 100 1012.0
20260901104303 61 0 0.0 0.0 0.00 0.00 0.00 100 1012.0
20260901103803 61 0 0.0 0.0 0.00 0.00 0.00 100 1011.9
20260901103304 61 0 0.0 0.0 0.00 0.00 0.00 100 1011.8
20260901102803 61 0 0.0 0.0 0.00 0.00 0.00 100 1011.9
20260901102306 61 0 0.0 0.9 0.00 0.00 0.00 100 1011.9
20260901101804 61 0 0.0 0.0 0.00 0.00 0.00 100 1012.0
20260901101303 61 0 0.0 0.0 0.00 0.00 0.00 100 1011.8
20260901100803 61 0 0.0 0.0 0.00 0.00 0.00 100 1011.8
20260901100304 61 0 0.0 0.0 0.00 0.00 0.00 100 1011.7
20260901095803 61 0 0.0 0.0 0.00 0.00 0.00 100 1011.7
20260901095306 61 0 0.0 0.0 0.00 0.00 0.00 100 1011.6
20260901094803 61 0 0.0 0.0 0.00 0.00 0.00 100 1011.6
20260901094304 61 0 0.0 0.0 0.00 0.00 0.00 100 1011.6
20260901093803 62 0 0.0 0.0 0.00 0.00 0.00 100 1011.6
20260901093303 62 0 0.0 0.0 0.00 0.00 0.00 100 1011.5
20260901092803 62 0 0.0 0.0 0.00 0.00 0.00 100 1011.5
20260901092305 62 0 0.0 0.0 0.00 0.00 0.00 100 1011.5
20260901091804 62 0 0.0 0.0 0.00 0.00 0.00 100 1011.3
20260901091303 62 0 0.0 0.0 0.00 0.00 0.00 100 1011.3
20260901090303 62 0 0.0 0.0 0.00 0.00 0.00 100 1011.4
20260901085803 63 0 0.0 0.0 0.00 0.00 0.00 100 1011.4
20260901085305 63 0 0.0 0.0 0.00 0.00 0.00 100 1011.5
20260901084303 63 0 0.0 0.0 0.00 0.00 0.00 100 1011.3
20260901083803 63 0 0.0 0.0 0.00 0.00 0.00 100 1011.3
20260901083303 63 0 0.0 0.0 0.00 0.00 0.00 100 1011.2
20260901082803 64 0 0.0 0.0 0.00 0.00 0.00 100 1011.2
20260901082306 64 0 0.0 0.0 0.00 0.00 0.00 100 1011.2
20260901081803 64 0 0.0 0.0 0.00 0.00 0.00 100 1011.3
20260901081303 64 0 0.0 0.0 0.00 0.00 0.00 100 1011.3
20260901080803 64 0 0.0 0.0 0.00 0.00 0.00 100 1011.3
20260901080304 64 0 0.0 0.0 0.00 0.00 0.00 100 1011.3
20260901075803 64 0 0.0 0.0 0.00 0.00 0.00 100 1011.3
20260901075307 64 0 0.0 0.0 0.00 0.00 0.00 100 1011.5
20260901074304 65 0 0.0 0.0 0.00 0.00 0.00 100 1011.5
20260901073303 65 0 0.0 0.0 0.00 0.00 0.00 100 1011.7
20260901072803 65 0 0.0 0.0 0.00 0.00 0.00 100 1011.8
20260901072308 65 0 0.0 0.0 0.00 0.00 0.00 100 1011.8
20260901071804 65 0 0.0 0.0 0.00 0.00 0.00 100 1011.9
20260901071304 66 0 0.0 0.0 0.00 0.00 0.00 100 1011.8
20260901070804 66 273 0.0 2.6 0.00 0.00 0.00 100 1011.8
20260901070303 65 272 0.0 0.9 0.00 0.00 0.00 100 1011.7
20260901065305 65 272 0.0 0.9 0.00 0.00 0.00 91 1011.8
20260901063803 66 274 0.0 0.0 0.00 0.00 0.00 91 1011.8
20260901062803 66 274 0.0 0.9 0.00 0.00 0.00 91 1011.8
20260901062309 66 273 0.0 2.6 0.00 0.00 0.00 91 1011.8
20260901061803 66 272 0.9 2.6 0.00 0.00 0.00 91 1011.8
20260901061304 66 263 0.0 0.9 0.00 0.00 0.00 91 1011.8
20260901060803 66 332 0.0 0.0 0.00 0.00 0.00 91 1011.7
20260901060304 66 320 0.0 0.0 0.00 0.00 0.00 91 1011.7
20260901055803 66 304 0.0 0.0 0.00 0.00 0.00 92 1011.6
20260901055306 66 274 0.0 0.0 0.00 0.00 0.00 92 1011.5
20260901054804 66 316 0.0 0.0 0.00 0.00 0.00 92 1011.5
20260901054303 66 278 0.0 0.0 0.00 0.00 0.00 92 1011.5
20260901053804 66 280 0.0 0.9 0.00 0.00 0.00 92 1011.5
20260901053303 67 280 0.0 0.9 0.00 0.00 0.00 92 1011.4
20260901052803 67 281 0.0 0.0 0.00 0.00 0.00 92 1011.4
20260901052306 67 276 0.0 0.0 0.00 0.00 0.00 92 1011.2
20260901051804 67 274 0.0 0.0 0.00 0.00 0.00 92 1011.2
20260901051303 67 281 0.0 0.0 0.00 0.00 0.00 92 1011.2
20260901050812 67 281 0.0 0.9 0.00 0.00 0.00 92 1011.2
20260901050303 67 284 0.0 0.0 0.00 0.00 0.00 92 1011.0
20260901045804 68 284 0.0 0.9 0.00 0.00 0.00 90 1011.0
20260901044803 68 284 0.0 0.0 0.00 0.00 0.00 90 1010.9
20260901044304 68 284 0.0 0.0 0.00 0.00 0.00 90 1010.9
20260901043804 68 284 0.0 0.0 0.00 0.00 0.00 90 1010.9
20260901043303 68 285 0.0 0.0 0.00 0.00 0.00 90 1010.8
20260901042803 68 285 0.0 0.0 0.00 0.00 0.00 90 1010.8
20260901042306 69 286 0.0 0.0 0.00 0.00 0.00 90 1010.8
20260901041803 69 286 0.0 0.0 0.00 0.00 0.00 90 1010.8
20260901041304 69 286 0.0 0.0 0.00 0.00 0.00 90 1010.8
20260901040803 69 286 0.0 0.0 0.00 0.00 0.00 90 1010.9
20260901040303 69 285 0.0 0.0 0.00 0.00 0.00 90 1010.9
20260901035804 69 285 0.0 0.0 0.00 0.00 0.00 85 1010.8
20260901035305 69 285 0.0 0.0 0.00 0.00 0.00 85 1010.8
20260901034803 70 285 0.0 0.0 0.00 0.00 0.00 85 1010.8
20260901034304 70 285 0.0 0.0 0.00 0.00 0.00 85 1010.8
20260901033804 70 286 0.0 0.0 0.00 0.00 0.00 85 1010.8
20260901033303 70 286 0.0 0.0 0.00 0.00 0.00 85 1010.7
20260901032803 70 286 0.0 0.0 0.00 0.00 0.00 85 1010.7
20260901032306 71 286 0.0 0.0 0.00 0.00 0.00 85 1010.7
20260901031804 71 286 0.0 0.0 0.00 0.00 0.00 85 1010.7
20260901031303 71 286 0.0 0.9 0.00 0.00 0.00 85 1010.6
20260901030803 71 286 0.0 0.0 0.00 0.00 0.00 85 1010.6
20260901025804 72 286 0.0 0.0 0.00 0.00 0.00 85 1010.6
20260901025306 72 288 0.0 0.0 0.00 0.00 0.00 85 1010.5
20260901024803 72 286 0.0 1.7 0.00 0.00 0.00 85 1010.4
20260901023803 73 290 0.0 2.6 0.00 0.00 0.00 85 1010.4
20260901023304 73 286 0.0 2.6 0.00 0.00 0.00 85 1010.4
20260901022804 73 286 0.9 1.7 0.00 0.00 0.00 85 1010.3
20260901021804 74 286 0.9 1.7 0.00 0.00 0.00 85 1010.3
20260901020803 75 286 0.0 1.7 0.00 0.00 0.00 85 1010.3
20260901015803 75 286 0.9 1.7 0.00 0.00 0.00 80 1010.3
20260901014803 76 286 0.9 2.6 0.00 0.00 0.00 80 1010.2
20260901014304 76 286 0.0 1.7 0.00 0.00 0.00 80 1010.1
20260901013804 76 286 0.0 1.7 0.00 0.00 0.00 80 1010.0
20260901013303 76 286 0.0 1.7 0.00 0.00 0.00 80 1009.9
20260901012803 77 286 0.0 0.9 0.00 0.00 0.00 80 1009.9
20260901012306 77 286 0.0 0.9 0.00 0.00 0.00 80 1009.8
20260901011804 77 286 0.0 0.9 0.00 0.00 0.00 80 1009.7
20260901011304 78 286 0.0 0.9 0.00 0.00 0.00 80 1009.7
20260901010804 78 286 0.0 0.9 0.00 0.00 0.00 80 1009.6
20260901010304 79 286 0.0 1.7 0.00 0.00 0.00 80 1009.6
20260901005306 80 286 0.0 1.7 0.00 0.00 0.00 89 1009.6
20260901004804 80 286 0.0 0.9 0.00 0.00 0.00 89 1009.5
20260901004304 81 286 0.9 1.7 0.00 0.00 0.00 89 1009.4
20260901003804 81 286 0.0 0.9 0.00 0.00 0.00 89 1009.4
20260901003304 82 286 0.0 0.9 0.00 0.00 0.00 89 1009.3
20260901002803 83 286 0.0 0.9 0.00 0.00 0.00 89 1009.4
20260901002305 84 286 0.9 2.6 0.00 0.00 0.00 89 1009.4
20260901001804 85 282 0.9 2.6 0.00 0.00 0.00 89 1009.3
20260901000804 85 304 1.7 4.3 0.00 0.00 0.00 89 1009.2
20260901000304 85 305 1.7 2.6 0.00 0.00 0.00 89 1009.2
20260831235804 86 238 0.9 5.2 0.00 0.00 0.00 82 1009.2
20260831235306 86 302 0.9 2.6 0.00 0.00 0.00 82 1009.1
20260831234303 87 309 0.9 2.6 0.00 0.00 0.00 82 1009.2
20260831233804 86 262 0.0 1.7 0.00 0.00 0.00 82 1009.1
20260831232305 87 261 1.7 5.2 0.00 0.00 0.00 82 1008.9
20260831231304 87 309 0.9 2.6 0.00 0.00 0.00 82 1008.9
20260831230803 88 321 0.9 2.6 0.00 0.00 0.00 82 1009.0
20260831230303 88 265 1.7 6.1 0.00 0.00 0.00 80 1008.9
20260831225804 89 321 1.7 2.6 0.00 0.00 0.00 70 1008.7
20260831225306 89 341 0.9 6.1 0.00 0.00 0.00 70 1008.7
20260831224804 89 311 1.7 5.2 0.00 0.00 0.00 70 1008.6
20260831224304 89 336 1.7 2.6 0.00 0.00 0.00 70 1008.6
20260831223803 89 359 0.9 4.3 0.00 0.00 0.00 70 1008.6
20260831223303 89 60 0.9 2.6 0.00 0.00 0.00 70 1008.5
20260831222306 90 304 1.7 2.6 0.00 0.00 0.00 70 1008.4
20260831221803 90 180 2.6 7.0 0.00 0.00 0.00 70 1008.5
20260831221303 89 44 1.7 5.2 0.00 0.00 0.00 70 1008.6
20260831220803 89 254 0.9 6.1 0.00 0.00 0.00 70 1008.6
20260831220304 89 275 0.9 4.3 0.00 0.00 0.00 70 1008.6
20260831215804 89 215 0.9 4.3 0.00 0.00 0.00 78 1008.6
20260831215306 88 209 0.9 2.6 0.00 0.00 0.00 78 1008.6
20260831214804 87 332 0.0 0.0 0.00 0.00 0.00 78 1008.6
20260831214303 87 332 0.0 2.6 0.00 0.00 0.00 78 1008.5
20260831213803 87 265 0.0 2.6 0.00 0.00 0.00 78 1008.5
20260831213303 88 254 0.9 5.2 0.00 0.00 0.00 78 1008.4
20260831212803 88 285 2.6 6.1 0.00 0.00 0.00 78 1008.5
20260831212306 89 333 1.7 2.6 0.00 0.00 0.00 78 1008.4
20260831211803 89 298 2.6 5.2 0.00 0.00 0.00 78 1008.4
20260831211304 88 266 0.0 2.6 0.00 0.00 0.00 78 1008.4
20260831210303 88 84 0.9 2.6 0.00 0.00 0.00 80 1008.3
20260831205803 88 96 0.9 2.6 0.00 0.00 0.00 88 1008.3
20260831205305 87 323 0.0 2.6 0.00 0.00 0.00 88 1008.3
20260831204804 88 308 3.5 7.8 0.00 0.00 0.00 88 1008.3
20260831203303 87 319 0.9 7.0 0.00 0.00 0.00 88 1008.3
20260831202803 87 313 2.6 6.1 0.00 0.00 0.00 88 1008.3
20260831201803 86 324 1.7 5.2 0.00 0.00 0.00 88 1008.4